[[{"header":{"parameterUnit":"m.s-1","parameterCategory":1,"la1":30.2992,"la2":30.254,"lo1":-89.0895,"lo2":-89.0443,"dy":0.0025,"dx":0.0025,"nx":19,"ny":19,"refTime":"2026-05-11T09:00:00:Z","depth":0,"parameterNumber":2,"parameterNumberName":"U-component_of_WINDS"},"data":[0,0,0,-0.1398,-0.1398,-0.1394,-0.1394,-0.1401,-0.1401,0,0,0,0,0,0,0,0,0,0,0,-0.1406,-0.1406,-0.1398,-0.1398,-0.1394,-0.1394,-0.1401,-0.1401,0,0,0,0,0,0,0,0,0,0,0,-0.1405,-0.1406,-0.1406,-0.1398,-0.1394,-0.1394,-0.1401,-0.14,0,0,0,0,0,0,0,0,0,0,-0.1402,-0.1415,-0.1406,-0.1406,-0.1398,-0.1394,-0.1394,-0.14,-0.14,-0.1408,0,-0.1416,0,-0.1409,-0.1403,-0.1403,0,0,0,-0.1393,-0.1415,-0.1408,-0.1406,-0.1398,-0.1394,-0.1394,-0.14,-0.14,-0.1409,-0.1416,-0.1416,-0.1409,-0.1403,-0.1403,-0.1465,-0.1465,0,0,-0.1393,-0.1409,-0.1408,-0.1408,-0.1409,-0.1394,-0.1394,-0.14,-0.141,-0.1416,-0.1416,-0.1409,-0.1403,-0.1403,-0.1464,-0.1465,0,0,0,-0.1397,-0.1409,-0.1401,-0.1408,-0.1407,-0.1394,-0.1394,-0.1409,-0.1405,-0.1416,-0.1409,-0.1403,-0.1403,-0.1464,-0.1464,-0.1505,0,0,0,-0.1397,-0.1411,-0.1402,-0.1411,-0.1407,-0.1408,-0.1404,-0.1405,-0.1405,-0.1409,-0.1403,-0.1403,-0.1463,-0.1464,-0.1503,-0.1522,0,0,0,-0.1404,-0.1412,-0.1414,-0.1412,-0.1411,-0.1407,-0.1404,-0.1405,-0.1401,-0.1403,-0.1403,-0.1463,-0.1464,-0.1501,-0.1519,-0.1543,0,0,0,-0.1415,-0.145,-0.1415,-0.1451,-0.1411,-0.1432,-0.1403,-0.1419,-0.1425,-0.1403,-0.1463,-0.1464,-0.15,-0.1516,-0.1541,-0.1567,-0.1579,0,0,-0.1468,-0.1457,-0.1477,-0.1445,-0.1477,-0.1432,-0.147,-0.146,-0.1447,-0.146,-0.1461,-0.1504,-0.1518,-0.1543,-0.1641,-0.1651,0,0,0,-0.1499,-0.1514,-0.1519,-0.1525,-0.1519,-0.1515,-0.1499,-0.1495,-0.1506,-0.1456,-0.1518,-0.1527,-0.1541,-0.1552,-0.1561,-0.1572,-0.147,-0.147,-0.147,-0.1597,-0.1577,-0.1609,-0.1588,-0.1595,-0.1577,-0.1581,-0.1574,-0.1552,-0.1567,-0.1571,-0.1633,-0.1647,-0.1654,-0.1665,-0.1583,-0.1583,-0.1583,-0.1583,-0.1672,-0.169,-0.166,-0.168,-0.1659,-0.1676,-0.1661,-0.1645,-0.1659,-0.1628,-0.164,-0.1609,-0.1665,-0.1674,-0.1586,-0.1585,-0.1585,-0.1585,-0.1585,-0.1734,-0.1739,-0.1734,-0.1742,-0.175,-0.1728,-0.1742,-0.1722,-0.1704,-0.1715,-0.1717,-0.1716,-0.1714,-0.1717,-0.1717,-0.1718,-0.1718,-0.1718,-0.1718,-0.1801,-0.1794,-0.1808,-0.1804,-0.1806,-0.1805,-0.1788,-0.179,-0.1786,-0.1771,-0.1771,-0.1748,-0.1674,-0.1656,-0.1721,-0.1721,-0.172,-0.172,-0.172,-0.1886,-0.1863,-0.1885,-0.1887,-0.1881,-0.1891,-0.1865,-0.1869,-0.1868,-0.1875,-0.185,-0.1798,-0.1786,-0.1779,-0.1764,-0.1854,-0.1854,-0.1854,-0.1854,-0.1939,-0.193,-0.1948,-0.1952,-0.1954,-0.1933,-0.1959,-0.1946,-0.193,-0.1928,-0.1912,-0.189,-0.1884,-0.1875,-0.1867,-0.1852,-0.1962,-0.1963,-0.1963,-0.199,-0.1981,-0.2007,-0.199,-0.1984,-0.198,-0.2004,-0.201,-0.1987,-0.1967,-0.1926,-0.1921,-0.1886,-0.1876,-0.1855,-0.1842,-0.1815,0,0]},{"header":{"parameterUnit":"m.s-1","parameterCategory":1,"la1":30.2992,"la2":30.254,"lo1":-89.0895,"lo2":-89.0443,"dy":0.0025,"dx":0.0025,"nx":19,"ny":19,"refTime":"2026-05-11T09:00:00:Z","depth":0,"parameterNumber":3,"parameterNumberName":"V-component_of_WINDS"},"data":[0,0,0,-0.78,-0.78,-0.7788,-0.7787,-0.7781,-0.7781,0,0,0,0,0,0,0,0,0,0,0,-0.7809,-0.7809,-0.78,-0.78,-0.7788,-0.7787,-0.7781,-0.7781,0,0,0,0,0,0,0,0,0,0,0,-0.7809,-0.7809,-0.7809,-0.78,-0.7788,-0.7787,-0.7781,-0.7787,0,0,0,0,0,0,0,0,0,0,-0.7797,-0.7811,-0.7809,-0.7809,-0.78,-0.7788,-0.7787,-0.7787,-0.7786,-0.779,0,-0.7795,0,-0.7788,-0.7781,-0.7781,0,0,0,-0.7795,-0.7811,-0.7803,-0.7809,-0.7799,-0.7788,-0.7792,-0.7786,-0.7786,-0.7789,-0.7795,-0.7794,-0.7788,-0.7781,-0.7781,-0.7817,-0.7817,0,0,-0.7796,-0.7809,-0.7803,-0.7803,-0.7805,-0.7792,-0.7791,-0.7786,-0.7793,-0.7795,-0.7794,-0.7788,-0.7781,-0.7781,-0.7817,-0.7817,0,0,0,-0.7801,-0.781,-0.7802,-0.7803,-0.7801,-0.7792,-0.7791,-0.7793,-0.7789,-0.7794,-0.7787,-0.7781,-0.7781,-0.7816,-0.7817,-0.7849,0,0,0,-0.7801,-0.7813,-0.7802,-0.781,-0.7801,-0.7797,-0.7798,-0.7789,-0.7788,-0.7787,-0.7781,-0.7781,-0.7816,-0.7817,-0.7847,-0.7862,0,0,0,-0.7808,-0.7814,-0.7814,-0.7811,-0.7807,-0.7796,-0.7792,-0.7789,-0.7785,-0.7781,-0.7781,-0.7816,-0.7816,-0.7846,-0.786,-0.7877,0,0,0,-0.7819,-0.7842,-0.7814,-0.7838,-0.7807,-0.7816,-0.7792,-0.7798,-0.7798,-0.7781,-0.7816,-0.7817,-0.7845,-0.7858,-0.7875,-0.7895,-0.7904,0,0,-0.7855,-0.7847,-0.7859,-0.7834,-0.7852,-0.7817,-0.7839,-0.7826,-0.7813,-0.7816,-0.7817,-0.7848,-0.7859,-0.7876,-0.7947,-0.7954,0,0,0,-0.7875,-0.7885,-0.7886,-0.7888,-0.7879,-0.7873,-0.7855,-0.7851,-0.7853,-0.7818,-0.7857,-0.7864,-0.7873,-0.7882,-0.7888,-0.7896,-0.7821,-0.7821,-0.7821,-0.7947,-0.793,-0.795,-0.7931,-0.7932,-0.7914,-0.7914,-0.7905,-0.7886,-0.7896,-0.7897,-0.7942,-0.7953,-0.7957,-0.7966,-0.7905,-0.7905,-0.7905,-0.7905,-0.8,-0.8011,-0.7986,-0.7997,-0.7978,-0.7987,-0.797,-0.7957,-0.7962,-0.7939,-0.7947,-0.7925,-0.7966,-0.7972,-0.7907,-0.7907,-0.7906,-0.7906,-0.7906,-0.8047,-0.8049,-0.8043,-0.8043,-0.8046,-0.8025,-0.8032,-0.8014,-0.7997,-0.8005,-0.8005,-0.8004,-0.8003,-0.8006,-0.8006,-0.8006,-0.8006,-0.8006,-0.8006,-0.8098,-0.809,-0.8098,-0.8091,-0.8089,-0.8086,-0.8068,-0.8066,-0.806,-0.8046,-0.8046,-0.8027,-0.7973,-0.796,-0.8009,-0.8008,-0.8008,-0.8008,-0.8008,-0.8161,-0.8144,-0.8156,-0.8155,-0.8145,-0.815,-0.8126,-0.8124,-0.812,-0.8124,-0.8104,-0.8066,-0.8056,-0.8051,-0.804,-0.8106,-0.8106,-0.8106,-0.8106,-0.8201,-0.8194,-0.8203,-0.8203,-0.82,-0.8181,-0.8196,-0.8182,-0.8165,-0.8162,-0.8149,-0.8133,-0.8129,-0.8121,-0.8115,-0.8105,-0.8186,-0.8186,-0.8186,-0.8239,-0.8231,-0.8248,-0.8231,-0.8222,-0.8215,-0.8229,-0.823,-0.8207,-0.8189,-0.8159,-0.8155,-0.813,-0.8122,-0.8105,-0.8095,-0.8077,0,0]}]]